Change the Weather History Date:

Friday, November 22, 2013

  Actual Average (KDFW) Record (KDFW)
Temperature  
Mean Temperature 36 °F 54 °F  
Max Temperature 39 °F 64 °F 89 °F (1955)
Min Temperature 33 °F 44 °F 23 °F (1898)
Degree Days  
Heating Degree Days 29 12  
Month to date heating degree days 176  
Since 1 July heating degree days 248  
Cooling Degree Days 0 0  
Month to date cooling degree days 27  
Year to date cooling degree days 2750  
Moisture  
Dew Point 34 °F    
Average Humidity 91    
Maximum Humidity 100    
Minimum Humidity 87    
Precipitation  
Precipitation 0.01 in 0.07 in 1.89 in (1913)
Month to date precipitation 2.11  
Year to date precipitation 32.99  
Snow  
Snow 0.00 in 0.00 in 5.00 in (1937)
Month to date snowfall 0.0  
Since 1 July snowfall 0.0  
Since 1 September snowfall 0.0  
Snow Depth -    
Sea Level Pressure  
Sea Level Pressure 30.39 in    
Wind  
Wind Speed 13 mph (North)    
Max Wind Speed 18 mph    
Max Gust Speed 28 mph    
Visibility 6 miles    
Events      
T = Trace of Precipitation, MM = Missing Value Source: NWS Daily Summary

Daily Weather History Graph

Daily Weather History Graph

Search for Another Location

Airport or City:

Trip Planner

Search our weather history database for the weather conditions in past years. The results will help you decide how hot, cold, wet, or windy it might be!

Date:

Astronomy

Nov. 22, 2013 Rise Set
Actual Time 7:04 AM CST 5:23 PM CST
Civil Twilight 6:38 AM CST 5:50 PM CST
Nautical Twilight 6:08 AM CST 6:20 PM CST
Astronomical Twilight 5:38 AM CST 6:49 PM CST
Moon 9:52 PM CST (11/22) 10:52 AM CST (11/22)
Length of Visible Light 11h 12m
Length of Day
10h 19m
Waning Gibbous, 78% of the Moon is Illuminated
Nov 22
Waning Gibbous
Nov 25
Last Quarter
Dec 2
New
Dec 9
First Quarter
Dec 17
Full

Hourly Weather History & Observations

Time (CST) Temp. Windchill Dew Point Humidity Pressure Visibility Wind Dir Wind Speed Gust Speed Precip Events Conditions
12:15 AM 39.2 °F 30.2 °F 37.4 °F 93% 30.26 in 10.0 mi North 17.3 mph 27.6 mph N/A   Overcast
12:35 AM 39.2 °F 32.5 °F 37.4 °F 93% 30.26 in 10.0 mi North 10.4 mph 23.0 mph N/A   Overcast
12:55 AM 39.2 °F 32.5 °F 35.6 °F 87% 30.28 in 10.0 mi NNW 10.4 mph 19.6 mph N/A   Overcast
1:15 AM 39.2 °F 30.8 °F 35.6 °F 87% 30.28 in 10.0 mi NNW 15.0 mph 21.9 mph N/A   Overcast
1:35 AM 39.2 °F 30.5 °F 35.6 °F 87% 30.29 in 10.0 mi NNW 16.1 mph 24.2 mph N/A   Overcast
1:55 AM 39.2 °F 33.0 °F 35.6 °F 87% 30.30 in 5.0 mi NNW 9.2 mph 18.4 mph 0.01 in   Overcast
2:15 AM 37.4 °F 30.3 °F 35.6 °F 93% 30.30 in 5.0 mi North 10.4 mph 21.9 mph N/A   Overcast
2:35 AM 37.4 °F 29.3 °F 35.6 °F 93% 30.31 in 7.0 mi North 12.7 mph 23.0 mph N/A   Overcast
2:55 AM 37.4 °F 28.2 °F 33.8 °F 87% 30.30 in 10.0 mi North 16.1 mph 23.0 mph N/A   Overcast
3:15 AM 37.4 °F 27.8 °F 33.8 °F 87% 30.29 in 5.0 mi North 17.3 mph 25.3 mph N/A   Overcast
3:35 AM 37.4 °F 29.3 °F 33.8 °F 87% 30.32 in 10.0 mi North 12.7 mph 17.3 mph N/A   Overcast
3:55 AM 37.4 °F 29.8 °F 33.8 °F 87% 30.32 in 10.0 mi NNW 11.5 mph 20.7 mph N/A   Overcast
4:15 AM 37.4 °F 27.5 °F 33.8 °F 87% 30.32 in 10.0 mi North 18.4 mph 27.6 mph N/A   Overcast
4:35 AM 37.4 °F 30.3 °F 33.8 °F 87% 30.34 in 10.0 mi North 10.4 mph 21.9 mph N/A   Overcast
4:55 AM 37.4 °F 28.5 °F 33.8 °F 87% 30.35 in 10.0 mi North 15.0 mph 24.2 mph N/A   Overcast
5:15 AM 35.6 °F 27.1 °F 33.8 °F 93% 30.35 in 7.0 mi North 12.7 mph 19.6 mph N/A   Overcast
5:35 AM 35.6 °F 28.0 °F 33.8 °F 93% 30.36 in 7.0 mi North 10.4 mph 18.4 mph N/A   Overcast
5:55 AM 35.6 °F 27.1 °F 33.8 °F 93% 30.38 in 7.0 mi North 12.7 mph 19.6 mph N/A   Overcast
7:55 AM 35.6 °F 27.5 °F 32.0 °F 87% 30.42 in - NNW 11.5 mph 21.9 mph N/A   Overcast
8:50 AM 35.6 °F 25.5 °F 32.0 °F 87% 30.42 in 7.0 mi North 17.3 mph 25.3 mph N/A   Overcast
10:50 AM 35.6 °F 26.6 °F 32.0 °F 87% 30.45 in 7.0 mi North 13.8 mph 25.3 mph N/A   Overcast
11:50 AM 35.6 °F 28.0 °F 32.0 °F 87% 30.44 in 4.0 mi NNW 10.4 mph - N/A   Overcast
12:50 PM 35.6 °F 27.5 °F 33.8 °F 93% 30.44 in 10.5 mi NNW 11.5 mph 18.4 mph N/A   Overcast
1:50 PM 35.6 °F 27.5 °F 33.8 °F 93% 30.42 in 3.0 mi NNW 11.5 mph 20.7 mph N/A   Overcast
2:50 PM 35.6 °F 27.5 °F 32.0 °F 87% 30.42 in 5.0 mi NNW 11.5 mph 16.1 mph N/A   Overcast
3:50 PM 35.6 °F 28.0 °F 33.8 °F 93% 30.42 in 3.0 mi NNW 10.4 mph 20.7 mph N/A   Overcast
4:50 PM 35.6 °F 28.6 °F 33.8 °F 93% 30.42 in 4.0 mi North 9.2 mph 23.0 mph N/A   Mostly Cloudy
5:50 PM 35.6 °F 28.6 °F 33.8 °F 93% 30.44 in 3.0 mi North 9.2 mph - N/A   Overcast
8:15 PM 33.8 °F 27.7 °F 33.8 °F 100% 30.46 in 3.0 mi North 6.9 mph - N/A   Overcast
8:35 PM 33.8 °F 26.4 °F 33.8 °F 100% 30.46 in 3.0 mi North 9.2 mph 17.3 mph N/A   Overcast
8:55 PM 33.8 °F 26.4 °F 33.8 °F 100% 30.47 in 4.0 mi North 9.2 mph - N/A   Overcast
9:15 PM 33.8 °F 27.0 °F 33.8 °F 100% 30.46 in 4.0 mi North 8.1 mph 17.3 mph N/A   Overcast
9:35 PM 35.6 °F 28.6 °F 33.8 °F 93% 30.46 in 4.0 mi North 9.2 mph - N/A   Overcast
9:55 PM 35.6 °F 27.5 °F 33.8 °F 93% 30.47 in 3.0 mi North 11.5 mph 16.1 mph N/A   Overcast
10:15 PM 35.6 °F 28.0 °F 33.8 °F 93% 30.47 in 3.0 mi North 10.4 mph 16.1 mph N/A   Overcast
10:35 PM 35.6 °F 26.6 °F 33.8 °F 93% 30.47 in 4.0 mi North 13.8 mph 20.7 mph N/A   Overcast
10:55 PM 35.6 °F 27.5 °F 33.8 °F 93% 30.47 in 3.0 mi North 11.5 mph 18.4 mph N/A   Overcast
11:15 PM 35.6 °F 27.5 °F 33.8 °F 93% 30.48 in 3.0 mi North 11.5 mph 20.7 mph N/A   Overcast
11:35 PM 35.6 °F 28.6 °F 33.8 °F 93% 30.48 in 5.0 mi North 9.2 mph 20.7 mph N/A   Overcast
11:55 PM 35.6 °F 25.9 °F 33.8 °F 93% 30.47 in 7.0 mi North 16.1 mph - N/A   Overcast